{"data":{"norad_id":67990,"epoch":"2026-09-17T16:18:20.143584Z","epoch_age_seconds":303330,"freshness":"STALE","line1":"1 67990U 26039E   26260.67939981  .00016740  00000+0  61593-3 0  9993","line2":"2 67990  43.0042  44.8623 0002559 270.3392  89.7166 15.27607256 31068","mean_motion":15.27607256,"eccentricity":0.0002559,"inclination_deg":43.0042,"raan_deg":44.8623,"arg_perigee_deg":270.3392,"mean_anomaly_deg":89.7166,"bstar":0.00061593,"rev_number":3106,"period_min":94.265066779704,"perigee_km":481.21172634665,"apogee_km":484.72323962104,"semimajor_km":6861.1044829838,"source":"CELESTRAK","updated_at":"2026-09-20T09:00:43.735374Z"}}